Location: Passau
(48.5830°N, 13.4830°E)
Time: 20:37:35
(UTC+02:00)

Vanguard 3 - Pass Details

Date: 20 May 2024
Orbit: 509 x 3231 km, 33.3° (Epoch: 15 June)

Event Time Altitude Azimuth Distance (km) Brightness Sun altitude
Rises 19:31:49 0° 211° (SSW) 4,226 11.0 10.4°
Reaches altitude 10° 19:34:51 10° 198° (SSW) 3,611 10.5 9.9°
Maximum altitude 19:42:35 26° 146° (SE) 3,313 9.9 8.7°
Drops below altitude 10° 19:53:54 10° 98° (E) 5,436 10.8 7.0°
Sets 19:59:50 0° 89° (E) 6,814 11.3 6.1°
